sat.trackr.live / text

‹ back to catalog

STARLINK-31740

NORAD 59433 · 2024-065N

PAYLOAD ACTIVE UNKNOWN

§ Identity

Operator
Country
US
Launch date
2024-04-07
Launch site
AFWTR
Launch vehicle
Mass (kg)
RCS (m²)

Purposes: comms

External: N2YO · Heavens-Above · Gunter

§ Orbital elements

Epoch: 2026-05-25T02:40:07.227264Z

Period
94.11 min
Inclination
53.1602°
Eccentricity
0.0000748
Mean motion
15.30195155 rev/d
Perigee alt
474.7 km
Apogee alt
475.7 km
Semi-major
6,853.4 km
B*
3.5764e-7
RAAN
288.5699°
Arg perigee
107.8934°
Mean anomaly
252.2149°
Rev number
12,060

§ Raw data

STARLINK-317401 59433U 24065N   26145.11119476 -.00000348  00000+0  35764-6 0  99952 59433  53.1602 288.5699 0000748 107.8934 252.2149 15.30195155120600

JSON: /api/v1/satellites/59433 · /tle

For live sub-satellite position, see the globe view (requires WebGL).

§ Visibility from observer

Set your observer location to see the next 7 days of passes ≥ 10°. The values pass through the URL so the page stays shareable.

No JS? Fill the form by hand. The geolocation button needs JavaScript.